contact:dominique.lefevre@mio.osupytheas.fr, maurice.libes@osupytheas.fr, didier.mallarino@osupytheas.fr
Project:EMSO http://www.emso-fr.org/EMSO-France
Depth: 2436.0 m
Title:EMSO Ligure Ouest : Data MII capteur AQUADOPP
Date,Latitude,Longitude,X_East,Y_North,Z_Up,Amplitude_X,Amplitude_Y,Amplitude_Z,Batterie,SoundSpeed,Heading,Pitch,Roll,Pressure,TIS,Speed,Direction
, degrees North, degrees East, m.s-1, m.s-1,m.s-1, 1, 1, 1, Volt, m.s-1, degree, degree, degree, dbar, degree_C, m.s-1, degree
2022-02-22T00:04:03,42.805,6.029,0.013,-0.041,-0.005,104.0,104.0,103.0,13.3,1505.2,324.4,-0.7,1.8,2470.766,13.28,0.043,162.4
2022-02-22T00:07:03,42.805,6.029,-0.023,-0.041,-0.029,106.0,104.0,103.0,13.4,1505.2,327.5,-0.8,1.8,2470.73,13.28,0.047,209.3
2022-02-22T00:10:03,42.805,6.029,0.021,-0.025,0.008,105.0,105.0,102.0,13.4,1505.2,326.3,-0.7,1.8,2470.725,13.28,0.032,140.0
2022-02-22T00:13:03,42.805,6.029,0.039,-0.035,-0.033,104.0,104.0,102.0,13.4,1505.2,330.2,-0.8,1.8,2470.763,13.28,0.052,131.9
2022-02-22T00:16:03,42.805,6.029,0.03,-0.051,-0.034,106.0,104.0,102.0,13.3,1505.2,326.9,-0.8,1.8,2470.73,13.28,0.059,149.5
2022-02-22T00:19:03,42.805,6.029,0.009,-0.031,-0.01,106.0,104.0,103.0,13.4,1505.2,323.9,-0.8,1.8,2470.704,13.28,0.032,163.8
2022-02-22T00:22:03,42.805,6.029,0.001,-0.021,-0.029,104.0,106.0,102.0,13.3,1505.2,325.9,-0.8,1.8,2470.736,13.28,0.021,177.3
2022-02-22T00:25:03,42.805,6.029,-0.01,-0.035,-0.007,104.0,104.0,102.0,13.3,1505.2,331.0,-0.8,1.8,2470.701,13.28,0.036,195.9
2022-02-22T00:28:03,42.805,6.029,-0.004,-0.053,-0.028,104.0,104.0,102.0,13.4,1505.2,329.7,-0.7,1.8,2470.674,13.28,0.053,184.3
2022-02-22T00:31:03,42.805,6.029,0.005,-0.039,-0.031,104.0,104.0,103.0,13.4,1505.2,326.3,-0.8,1.8,2470.736,13.28,0.039,172.7
2022-02-22T00:34:03,42.805,6.029,0.0,-0.026,-0.025,104.0,104.0,102.0,13.4,1505.2,328.7,-0.7,1.8,2470.718,13.28,0.026,180.0
2022-02-22T00:37:03,42.805,6.029,-0.003,-0.048,-0.024,105.0,104.0,103.0,13.3,1505.2,324.6,-0.7,1.8,2470.691,13.28,0.048,183.6
2022-02-22T00:40:03,42.805,6.029,0.005,-0.043,0.005,107.0,104.0,102.0,13.4,1505.2,323.0,-0.7,1.8,2470.709,13.28,0.043,173.4
2022-02-22T00:43:03,42.805,6.029,-0.029,-0.029,-0.024,106.0,105.0,102.0,13.4,1505.2,329.8,-0.8,1.8,2470.761,13.28,0.041,225.0
2022-02-22T00:46:03,42.805,6.029,0.028,-0.051,-0.011,104.0,105.0,102.0,13.3,1505.2,326.0,-0.8,1.8,2470.728,13.28,0.058,151.2
2022-02-22T00:49:03,42.805,6.029,-0.009,-0.039,-0.035,106.0,105.0,102.0,13.4,1505.2,326.2,-0.7,1.8,2470.694,13.28,0.04,193.0
2022-02-22T00:52:03,42.805,6.029,0.004,-0.039,-0.017,105.0,104.0,105.0,13.3,1505.2,328.6,-0.8,1.8,2470.751,13.28,0.039,174.1
2022-02-22T00:55:03,42.805,6.029,0.009,-0.044,-0.068,105.0,103.0,103.0,13.3,1505.2,328.9,-0.7,1.8,2470.686,13.28,0.044,168.4
2022-02-22T00:58:03,42.805,6.029,-0.008,-0.033,0.012,105.0,103.0,102.0,13.4,1505.2,328.9,-0.7,1.8,2470.714,13.28,0.033,193.6
2022-02-22T01:04:03,42.805,6.029,0.007,-0.042,0.0,106.0,106.0,104.0,13.4,1505.2,327.7,-0.8,1.8,2470.741,13.28,0.042,170.5
2022-02-22T01:07:03,42.805,6.029,0.011,-0.055,-0.029,105.0,104.0,103.0,13.4,1505.2,329.0,-0.8,1.8,2470.697,13.28,0.056,168.7
2022-02-22T01:10:03,42.805,6.029,0.016,-0.055,-0.027,106.0,106.0,103.0,13.4,1505.2,325.0,-0.7,1.8,2470.722,13.28,0.057,163.8
2022-02-22T01:13:03,42.805,6.029,0.014,-0.036,0.025,104.0,103.0,103.0,13.3,1505.2,326.6,-0.8,1.8,2470.703,13.28,0.038,158.8
2022-02-22T01:16:03,42.805,6.029,-0.002,-0.057,-0.038,104.0,103.0,103.0,13.4,1505.2,329.2,-0.8,1.8,2470.703,13.28,0.057,182.0
2022-02-22T01:19:03,42.805,6.029,-0.003,-0.042,-0.014,103.0,105.0,102.0,13.4,1505.2,328.4,-0.8,1.8,2470.697,13.28,0.042,184.1
2022-02-22T01:22:03,42.805,6.029,-0.027,-0.018,-0.02,103.0,105.0,104.0,13.3,1505.2,326.3,-0.7,1.8,2470.704,13.28,0.032,236.3
2022-02-22T01:25:03,42.805,6.029,0.021,-0.057,-0.031,103.0,103.0,102.0,13.4,1505.2,328.0,-0.8,1.8,2470.728,13.28,0.06,159.8
2022-02-22T01:28:03,42.805,6.029,-0.004,-0.028,-0.018,103.0,105.0,102.0,13.4,1505.2,324.7,-0.8,1.8,2470.711,13.28,0.028,188.1
2022-02-22T01:31:03,42.805,6.029,0.01,-0.033,-0.01,104.0,104.0,101.0,13.4,1505.2,325.3,-0.8,1.8,2470.703,13.28,0.034,163.1
2022-02-22T01:34:03,42.805,6.029,0.024,-0.036,0.003,104.0,104.0,102.0,13.4,1505.2,327.8,-0.8,1.8,2470.682,13.28,0.043,146.3
2022-02-22T01:37:03,42.805,6.029,0.029,-0.028,-0.015,104.0,105.0,102.0,13.4,1505.2,325.9,-0.8,1.8,2470.691,13.28,0.04,134.0
2022-02-22T01:40:03,42.805,6.029,-0.013,-0.04,-0.017,105.0,104.0,102.0,13.4,1505.2,329.3,-0.7,1.8,2470.672,13.28,0.042,198.0
2022-02-22T01:43:03,42.805,6.029,0.006,-0.036,-0.031,105.0,105.0,104.0,13.4,1505.2,325.9,-0.7,1.8,2470.643,13.28,0.036,170.5
2022-02-22T01:46:03,42.805,6.029,0.003,-0.045,-0.006,105.0,105.0,103.0,13.4,1505.2,329.3,-0.8,1.8,2470.662,13.28,0.045,176.2
2022-02-22T01:49:03,42.805,6.029,-0.008,-0.039,-0.031,105.0,105.0,103.0,13.4,1505.2,330.9,-0.8,1.8,2470.668,13.28,0.039,191.6
2022-02-22T01:52:03,42.805,6.029,-0.016,-0.058,-0.04,105.0,105.0,102.0,13.4,1505.2,327.6,-0.8,1.8,2470.672,13.28,0.06,195.4
2022-02-22T01:55:03,42.805,6.029,-0.006,-0.031,-0.013,106.0,105.0,103.0,13.3,1505.2,328.8,-0.7,1.8,2470.659,13.28,0.031,191.0
2022-02-22T01:58:03,42.805,6.029,0.013,-0.036,-0.006,106.0,104.0,103.0,13.4,1505.2,329.3,-0.7,1.8,2470.661,13.28,0.038,160.1
2022-02-22T02:04:03,42.805,6.029,0.002,-0.036,-0.022,105.0,105.0,103.0,13.4,1505.2,326.2,-0.7,1.8,2470.721,13.28,0.036,176.8
2022-02-22T02:07:03,42.805,6.029,0.017,-0.03,-0.015,105.0,105.0,103.0,13.3,1505.2,326.6,-0.8,1.8,2470.69,13.28,0.034,150.5
2022-02-22T02:10:03,42.805,6.029,0.008,-0.022,-0.029,105.0,104.0,103.0,13.3,1505.2,323.6,-0.7,1.8,2470.653,13.28,0.023,160.0
2022-02-22T02:13:03,42.805,6.029,0.008,-0.024,0.005,105.0,105.0,103.0,13.3,1505.2,324.6,-0.7,1.8,2470.65,13.28,0.025,161.6
2022-02-22T02:16:03,42.805,6.029,0.0,-0.03,-0.011,106.0,104.0,102.0,13.3,1505.2,326.0,-0.8,1.8,2470.671,13.28,0.03,180.0
2022-02-22T02:19:03,42.805,6.029,0.005,-0.051,-0.01,105.0,105.0,103.0,13.4,1505.2,325.6,-0.7,1.8,2470.659,13.28,0.051,174.4
2022-02-22T02:22:03,42.805,6.029,0.004,-0.041,-0.033,106.0,105.0,102.0,13.3,1505.2,327.3,-0.7,1.8,2470.68,13.28,0.041,174.4
2022-02-22T02:25:03,42.805,6.029,0.015,-0.049,-0.021,105.0,104.0,103.0,13.3,1505.2,327.0,-0.8,1.9,2470.654,13.28,0.051,163.0
2022-02-22T02:28:03,42.805,6.029,0.002,-0.045,-0.013,106.0,105.0,103.0,13.4,1505.2,326.3,-0.8,1.8,2470.644,13.28,0.045,177.5
2022-02-22T02:31:03,42.805,6.029,0.01,-0.047,-0.04,106.0,105.0,103.0,13.3,1505.2,323.8,-0.7,1.8,2470.604,13.28,0.048,168.0
2022-02-22T02:34:03,42.805,6.029,0.017,-0.038,-0.004,104.0,104.0,102.0,13.4,1505.2,330.2,-0.7,1.8,2470.661,13.28,0.041,155.9
2022-02-22T02:37:03,42.805,6.029,-0.003,-0.032,-0.02,106.0,105.0,102.0,13.3,1505.2,331.1,-0.8,1.8,2470.663,13.28,0.032,185.4
2022-02-22T02:40:03,42.805,6.029,-0.004,-0.026,0.004,104.0,102.0,103.0,13.4,1505.2,325.2,-0.7,1.8,2470.622,13.28,0.026,188.7
2022-02-22T02:43:03,42.805,6.029,0.023,-0.052,-0.015,104.0,105.0,103.0,13.4,1505.2,324.7,-0.7,1.8,2470.643,13.28,0.056,156.1
2022-02-22T02:46:03,42.805,6.029,0.002,-0.027,-0.021,106.0,104.0,101.0,13.4,1505.2,325.0,-0.8,1.8,2470.629,13.28,0.027,175.8
2022-02-22T02:49:03,42.805,6.029,0.003,-0.031,-0.005,104.0,104.0,103.0,13.4,1505.2,331.0,-0.8,1.8,2470.615,13.28,0.031,174.5
2022-02-22T02:52:03,42.805,6.029,0.017,-0.017,-0.014,104.0,104.0,103.0,13.3,1505.2,326.7,-0.8,1.8,2470.617,13.28,0.024,135.0
2022-02-22T02:55:03,42.805,6.029,0.014,-0.027,-0.006,106.0,105.0,102.0,13.4,1505.2,322.9,-0.8,1.8,2470.668,13.28,0.03,152.6
2022-02-22T02:58:03,42.805,6.029,0.016,-0.044,-0.028,105.0,105.0,103.0,13.4,1505.2,325.0,-0.8,1.9,2470.652,13.28,0.046,160.0
2022-02-22T03:04:03,42.805,6.029,0.004,0.002,-0.001,104.0,104.0,104.0,13.4,1505.2,326.3,-0.8,1.8,2470.621,13.28,0.004,63.4
2022-02-22T03:07:03,42.805,6.029,-0.003,-0.024,-0.012,105.0,103.0,103.0,13.4,1505.2,326.1,-0.8,1.8,2470.624,13.28,0.024,187.1
2022-02-22T03:10:03,42.805,6.029,0.012,-0.036,-0.013,105.0,104.0,102.0,13.4,1505.2,324.6,-0.7,1.8,2470.683,13.28,0.037,161.6
2022-02-22T03:13:03,42.805,6.029,0.01,-0.024,0.004,105.0,105.0,103.0,13.4,1505.2,329.2,-0.8,1.8,2470.69,13.28,0.026,157.4
2022-02-22T03:16:03,42.805,6.029,0.0,-0.025,-0.028,104.0,104.0,103.0,13.3,1505.2,328.9,-0.8,1.8,2470.636,13.28,0.025,180.0
2022-02-22T03:19:03,42.805,6.029,0.001,-0.033,-0.028,106.0,103.0,102.0,13.4,1505.2,325.4,-0.8,1.8,2470.619,13.28,0.033,178.3
2022-02-22T03:22:03,42.805,6.029,0.029,-0.037,0.009,104.0,105.0,103.0,13.3,1505.2,328.1,-0.8,1.8,2470.693,13.28,0.047,141.9
2022-02-22T03:25:03,42.805,6.029,0.01,-0.044,-0.035,106.0,102.0,104.0,13.4,1505.2,330.8,-0.7,1.8,2470.556,13.28,0.045,167.2
2022-02-22T03:28:03,42.805,6.029,0.022,-0.047,-0.019,104.0,104.0,103.0,13.4,1505.2,331.7,-0.7,1.8,2470.614,13.28,0.051,154.9
2022-02-22T03:31:03,42.805,6.029,0.014,-0.037,-0.029,105.0,105.0,102.0,13.4,1505.2,326.7,-0.8,1.8,2470.604,13.28,0.039,159.3
2022-02-22T03:34:03,42.805,6.029,0.035,-0.047,-0.011,104.0,104.0,101.0,13.4,1505.2,328.6,-0.8,1.8,2470.624,13.28,0.058,143.3
2022-02-22T03:37:03,42.805,6.029,0.025,-0.034,-0.011,104.0,104.0,102.0,13.4,1505.2,325.4,-0.7,1.8,2470.645,13.28,0.042,143.7
2022-02-22T03:40:03,42.805,6.029,0.016,-0.061,-0.006,105.0,103.0,104.0,13.4,1505.2,324.4,-0.7,1.8,2470.627,13.28,0.063,165.3
2022-02-22T03:43:03,42.805,6.029,0.006,-0.037,0.001,106.0,104.0,103.0,13.4,1505.2,326.3,-0.8,1.8,2470.62,13.28,0.037,170.8
2022-02-22T03:46:03,42.805,6.029,0.003,-0.029,0.001,104.0,104.0,102.0,13.4,1505.2,327.7,-0.8,1.8,2470.622,13.28,0.029,174.1
2022-02-22T03:49:03,42.805,6.029,0.019,-0.048,-0.02,105.0,105.0,103.0,13.3,1505.2,327.0,-0.8,1.8,2470.606,13.28,0.051,158.4
2022-02-22T03:52:03,42.805,6.029,0.009,-0.042,-0.025,104.0,105.0,103.0,13.3,1505.2,331.1,-0.8,1.8,2470.625,13.28,0.042,167.9
2022-02-22T03:55:03,42.805,6.029,0.015,-0.027,-0.018,105.0,104.0,102.0,13.3,1505.2,326.7,-0.7,1.8,2470.637,13.28,0.03,150.9
2022-02-22T03:58:03,42.805,6.029,0.005,-0.032,-0.015,103.0,104.0,102.0,13.3,1505.2,328.9,-0.7,1.8,2470.608,13.28,0.032,171.1
2022-02-22T04:04:03,42.805,6.029,0.015,-0.037,-0.01,104.0,104.0,103.0,13.4,1505.2,325.0,-0.8,1.8,2470.663,13.28,0.039,157.9
2022-02-22T04:07:03,42.805,6.029,0.004,-0.043,-0.031,104.0,104.0,102.0,13.4,1505.2,328.9,-0.8,1.8,2470.625,13.28,0.043,174.7
2022-02-22T04:10:03,42.805,6.029,0.005,-0.047,-0.033,104.0,104.0,102.0,13.4,1505.2,327.2,-0.7,1.8,2470.669,13.28,0.047,173.9
2022-02-22T04:13:03,42.805,6.029,0.008,-0.04,-0.011,105.0,104.0,102.0,13.4,1505.2,327.0,-0.8,1.8,2470.626,13.28,0.04,168.7
2022-02-22T04:16:03,42.805,6.029,0.007,-0.03,0.007,105.0,104.0,101.0,13.4,1505.2,324.2,-0.7,1.9,2470.603,13.28,0.03,166.9
2022-02-22T04:19:03,42.805,6.029,0.022,-0.028,-0.035,104.0,105.0,102.0,13.4,1505.2,327.2,-0.7,1.8,2470.649,13.28,0.035,141.8
2022-02-22T04:22:03,42.805,6.029,0.013,-0.037,-0.026,106.0,103.0,102.0,13.4,1505.2,325.5,-0.8,1.8,2470.563,13.28,0.039,160.6
2022-02-22T04:25:03,42.805,6.029,0.019,-0.051,-0.023,104.0,104.0,102.0,13.3,1505.2,328.5,-0.8,1.8,2470.589,13.28,0.054,159.6
2022-02-22T04:28:03,42.805,6.029,-0.001,-0.037,-0.005,104.0,105.0,102.0,13.4,1505.2,328.9,-0.8,1.8,2470.6,13.28,0.037,181.5
2022-02-22T04:31:03,42.805,6.029,0.018,-0.048,-0.029,103.0,104.0,103.0,13.3,1505.2,326.8,-0.8,1.8,2470.575,13.28,0.051,159.4
2022-02-22T04:34:03,42.805,6.029,0.018,-0.058,0.002,105.0,104.0,102.0,13.3,1505.2,330.2,-0.7,1.8,2470.535,13.28,0.06,162.8
2022-02-22T04:37:03,42.805,6.029,0.014,-0.035,-0.014,104.0,104.0,102.0,13.4,1505.2,324.9,-0.8,1.8,2470.557,13.28,0.037,158.2
2022-02-22T04:40:03,42.805,6.029,0.0,-0.042,-0.01,104.0,103.0,102.0,13.4,1505.2,327.7,-0.8,1.8,2470.517,13.28,0.042,180.0
2022-02-22T04:43:03,42.805,6.029,0.019,-0.054,0.002,106.0,105.0,102.0,13.4,1505.2,324.9,-0.8,1.8,2470.525,13.28,0.057,160.6
2022-02-22T04:46:03,42.805,6.029,0.016,-0.054,-0.02,104.0,104.0,103.0,13.3,1505.2,327.9,-0.7,1.8,2470.54,13.28,0.056,163.5
2022-02-22T04:49:03,42.805,6.029,0.027,-0.03,-0.023,106.0,104.0,101.0,13.4,1505.2,328.2,-0.8,1.8,2470.523,13.28,0.04,138.0
2022-02-22T04:52:03,42.805,6.029,-0.003,-0.034,-0.004,105.0,103.0,102.0,13.4,1505.2,324.6,-0.8,1.8,2470.496,13.28,0.034,185.0
2022-02-22T04:55:03,42.805,6.029,0.027,-0.049,0.008,104.0,105.0,103.0,13.4,1505.2,328.9,-0.8,1.8,2470.551,13.28,0.055,151.1
2022-02-22T04:58:03,42.805,6.029,0.023,-0.035,-0.008,104.0,103.0,103.0,13.4,1505.2,331.4,-0.8,1.8,2470.549,13.28,0.041,146.7
2022-02-22T05:04:03,42.805,6.029,0.025,-0.054,-0.002,106.0,104.0,102.0,13.4,1505.2,328.7,-0.8,1.8,2470.57,13.28,0.059,155.2
2022-02-22T05:07:03,42.805,6.029,0.009,-0.04,-0.03,105.0,105.0,102.0,13.4,1505.2,324.6,-0.7,1.8,2470.53,13.28,0.041,167.3
2022-02-22T05:10:03,42.805,6.029,0.017,-0.046,-0.022,105.0,105.0,103.0,13.4,1505.2,325.6,-0.8,1.8,2470.582,13.28,0.049,159.7
2022-02-22T05:13:03,42.805,6.029,0.002,-0.048,0.024,107.0,105.0,103.0,13.4,1505.2,324.6,-0.7,1.8,2470.528,13.28,0.048,177.6
2022-02-22T05:16:03,42.805,6.029,0.006,-0.048,-0.002,106.0,105.0,103.0,13.4,1505.2,322.9,-0.8,1.8,2470.545,13.28,0.048,172.9
2022-02-22T05:19:03,42.805,6.029,-0.013,-0.051,-0.015,106.0,105.0,103.0,13.4,1505.2,327.4,-0.8,1.8,2470.524,13.28,0.052,194.3
2022-02-22T05:22:03,42.805,6.029,0.005,-0.064,0.005,106.0,105.0,105.0,13.4,1505.2,328.9,-0.7,1.8,2470.507,13.28,0.064,175.5
2022-02-22T05:25:03,42.805,6.029,0.005,-0.047,-0.026,105.0,105.0,103.0,13.4,1505.2,330.2,-0.7,1.8,2470.561,13.28,0.047,173.9
2022-02-22T05:28:03,42.805,6.029,0.004,-0.04,0.004,107.0,106.0,102.0,13.4,1505.2,326.0,-0.7,1.8,2470.507,13.28,0.04,174.3
2022-02-22T05:31:03,42.805,6.029,0.008,-0.057,-0.014,105.0,105.0,103.0,13.3,1505.2,323.9,-0.8,1.8,2470.523,13.28,0.057,172.0
2022-02-22T05:34:03,42.805,6.029,-0.016,-0.041,-0.038,106.0,105.0,103.0,13.3,1505.2,324.4,-0.8,1.8,2470.515,13.28,0.044,201.3
2022-02-22T05:37:03,42.805,6.029,0.012,-0.022,-0.041,106.0,105.0,104.0,13.3,1505.2,326.0,-0.8,1.8,2470.486,13.28,0.025,151.4
2022-02-22T05:40:03,42.805,6.029,-0.017,-0.045,-0.031,106.0,106.0,103.0,13.3,1505.2,331.0,-0.8,1.8,2470.486,13.28,0.048,200.7
2022-02-22T05:43:03,42.805,6.029,0.019,-0.034,0.02,105.0,106.0,103.0,13.4,1505.2,325.7,-0.8,1.8,2470.45,13.28,0.038,150.8
2022-02-22T05:46:03,42.805,6.029,0.0,-0.033,-0.019,106.0,104.0,102.0,13.4,1505.2,330.2,-0.8,1.8,2470.455,13.28,0.033,180.0
2022-02-22T05:49:03,42.805,6.029,0.0,-0.031,-0.021,105.0,105.0,103.0,13.4,1505.2,323.6,-0.7,1.8,2470.464,13.28,0.03,180.0
2022-02-22T05:52:03,42.805,6.029,-0.008,-0.045,-0.042,106.0,105.0,103.0,13.3,1505.2,330.3,-0.8,1.8,2470.475,13.28,0.045,190.1
2022-02-22T05:55:03,42.805,6.029,0.001,-0.043,-0.022,105.0,106.0,103.0,13.3,1505.2,325.9,-0.8,1.8,2470.461,13.28,0.043,178.7
2022-02-22T05:58:03,42.805,6.029,-0.01,-0.02,-0.011,104.0,105.0,103.0,13.3,1505.2,331.1,-0.8,1.8,2470.47,13.28,0.022,206.6
2022-02-22T06:04:03,42.805,6.029,0.01,-0.033,-0.055,104.0,104.0,102.0,13.3,1505.2,326.0,-0.7,1.8,2470.459,13.28,0.034,163.1
2022-02-22T06:07:03,42.805,6.029,0.001,-0.012,-0.017,105.0,105.0,102.0,13.4,1505.2,329.2,-0.8,1.8,2470.469,13.28,0.012,175.2
2022-02-22T06:10:03,42.805,6.029,-0.017,-0.018,0.006,104.0,104.0,102.0,13.3,1505.2,331.4,-0.8,1.9,2470.457,13.28,0.024,223.4
2022-02-22T06:13:03,42.805,6.029,-0.01,-0.018,-0.04,105.0,104.0,102.0,13.4,1505.2,331.7,-0.8,1.8,2470.472,13.28,0.02,209.1
2022-02-22T06:16:03,42.805,6.029,0.02,-0.043,-0.045,104.0,104.0,102.0,13.4,1505.2,325.2,-0.7,1.8,2470.418,13.28,0.047,155.1
2022-02-22T06:19:03,42.805,6.029,-0.01,-0.032,-0.018,104.0,103.0,103.0,13.4,1505.2,326.3,-0.7,1.8,2470.465,13.28,0.033,197.4
2022-02-22T06:22:03,42.805,6.029,0.02,-0.049,-0.017,104.0,104.0,102.0,13.4,1505.2,329.5,-0.8,1.8,2470.398,13.28,0.052,157.8
2022-02-22T06:25:03,42.805,6.029,-0.013,-0.038,-0.034,104.0,104.0,102.0,13.4,1505.2,324.6,-0.8,1.8,2470.414,13.28,0.04,198.9
2022-02-22T06:28:03,42.805,6.029,-0.013,-0.039,-0.031,103.0,104.0,102.0,13.4,1505.2,328.9,-0.7,1.8,2470.394,13.28,0.041,198.4
2022-02-22T06:31:03,42.805,6.029,0.012,-0.02,-0.023,104.0,103.0,102.0,13.4,1505.2,326.1,-0.8,1.8,2470.388,13.28,0.023,149.0
2022-02-22T06:34:03,42.805,6.029,-0.007,-0.029,-0.03,104.0,103.0,101.0,13.4,1505.2,328.9,-0.7,1.8,2470.395,13.28,0.029,193.6
2022-02-22T06:37:03,42.805,6.029,-0.013,-0.039,-0.023,103.0,102.0,101.0,13.4,1505.2,326.1,-0.8,1.8,2470.387,13.28,0.041,198.4
2022-02-22T06:40:03,42.805,6.029,-0.001,-0.032,-0.014,103.0,103.0,102.0,13.4,1505.2,327.3,-0.8,1.8,2470.405,13.28,0.032,181.8
2022-02-22T06:43:03,42.805,6.029,-0.013,-0.045,-0.044,104.0,102.0,102.0,13.4,1505.2,328.0,-0.8,1.8,2470.348,13.28,0.046,196.1
2022-02-22T06:46:03,42.805,6.029,0.003,-0.033,-0.012,103.0,103.0,102.0,13.4,1505.2,329.7,-0.8,1.8,2470.373,13.28,0.033,174.8
2022-02-22T06:49:03,42.805,6.029,-0.025,-0.044,-0.047,104.0,103.0,102.0,13.4,1505.2,329.7,-0.8,1.8,2470.343,13.28,0.05,209.6
2022-02-22T06:52:03,42.805,6.029,-0.016,-0.032,-0.064,103.0,103.0,102.0,13.4,1505.2,328.1,-0.7,1.8,2470.348,13.28,0.035,206.6
2022-02-22T06:55:03,42.805,6.029,0.03,-0.038,-0.011,103.0,104.0,101.0,13.3,1505.2,324.5,-0.8,1.9,2470.336,13.28,0.048,141.7
2022-02-22T06:58:03,42.805,6.029,0.009,-0.034,-0.024,103.0,104.0,102.0,13.4,1505.2,332.3,-0.7,1.8,2470.352,13.28,0.035,165.2
2022-02-22T07:04:03,42.805,6.029,0.018,-0.038,-0.02,104.0,102.0,101.0,13.3,1505.2,326.3,-0.8,1.8,2470.332,13.28,0.042,154.7
2022-02-22T07:07:03,42.805,6.029,0.0,-0.022,-0.006,103.0,103.0,102.0,13.4,1505.2,328.5,-0.7,1.8,2470.35,13.28,0.022,180.0
2022-02-22T07:10:03,42.805,6.029,-0.017,-0.02,-0.024,103.0,103.0,101.0,13.4,1505.2,326.5,-0.8,1.8,2470.307,13.28,0.026,220.4
2022-02-22T07:13:03,42.805,6.029,0.013,-0.051,-0.023,103.0,103.0,101.0,13.3,1505.2,326.3,-0.8,1.8,2470.303,13.28,0.052,165.7
2022-02-22T07:16:03,42.805,6.029,0.02,-0.022,-0.04,103.0,102.0,102.0,13.4,1505.2,329.8,-0.8,1.8,2470.277,13.28,0.029,137.7
2022-02-22T07:19:03,42.805,6.029,-0.012,-0.034,-0.032,103.0,105.0,101.0,13.4,1505.2,324.9,-0.7,1.8,2470.342,13.28,0.036,199.4
2022-02-22T07:22:03,42.805,6.029,0.006,-0.032,-0.073,102.0,104.0,101.0,13.3,1505.2,328.5,-0.8,1.8,2470.336,13.28,0.032,169.4
2022-02-22T07:25:03,42.805,6.029,-0.013,-0.057,-0.036,104.0,103.0,101.0,13.4,1505.2,329.6,-0.8,1.9,2470.282,13.28,0.058,192.8
2022-02-22T07:28:03,42.805,6.029,0.0,-0.033,-0.003,103.0,102.0,102.0,13.3,1505.2,328.3,-0.8,1.8,2470.302,13.28,0.033,180.0
2022-02-22T07:31:03,42.805,6.029,0.004,-0.029,-0.03,104.0,102.0,102.0,13.3,1505.2,328.3,-0.7,1.8,2470.31,13.28,0.029,172.2
2022-02-22T07:34:03,42.805,6.029,-0.004,-0.039,-0.061,104.0,102.0,102.0,13.4,1505.2,331.6,-0.7,1.8,2470.274,13.28,0.039,185.9
2022-02-22T07:37:03,42.805,6.029,0.0,-0.035,-0.035,104.0,104.0,101.0,13.3,1505.2,330.2,-0.7,1.8,2470.271,13.28,0.035,180.0
2022-02-22T07:40:03,42.805,6.029,0.019,-0.032,-0.037,103.0,103.0,101.0,13.3,1505.2,326.6,-0.8,1.8,2470.292,13.28,0.037,149.3
2022-02-22T07:43:03,42.805,6.029,0.014,-0.042,-0.021,103.0,103.0,101.0,13.4,1505.2,329.2,-0.8,1.8,2470.262,13.28,0.044,161.6
2022-02-22T07:46:03,42.805,6.029,0.007,-0.054,-0.06,103.0,102.0,103.0,13.4,1505.2,327.1,-0.8,1.8,2470.274,13.28,0.054,172.6
2022-02-22T07:49:03,42.805,6.029,0.005,-0.029,-0.023,103.0,103.0,102.0,13.3,1505.2,323.6,-0.8,1.8,2470.304,13.28,0.029,170.2
2022-02-22T07:52:03,42.805,6.029,-0.003,-0.04,-0.013,104.0,105.0,102.0,13.4,1505.2,330.0,-0.7,1.8,2470.295,13.28,0.04,184.3
2022-02-22T07:55:03,42.805,6.029,0.017,-0.057,-0.027,103.0,103.0,103.0,13.3,1505.2,325.7,-0.7,1.8,2470.289,13.28,0.059,163.4
2022-02-22T07:58:03,42.805,6.029,-0.004,-0.034,-0.013,104.0,103.0,101.0,13.4,1505.2,327.5,-0.8,1.8,2470.334,13.28,0.034,186.7
2022-02-22T08:04:03,42.805,6.029,-0.003,-0.058,-0.029,104.0,104.0,102.0,13.4,1505.2,328.8,-0.7,1.8,2470.318,13.28,0.058,183.0
2022-02-22T08:07:03,42.805,6.029,-0.026,-0.035,-0.03,104.0,103.0,102.0,13.4,1505.2,325.4,-0.7,1.8,2470.295,13.28,0.043,216.6
2022-02-22T08:10:03,42.805,6.029,-0.002,-0.044,-0.039,104.0,103.0,102.0,13.4,1505.2,328.9,-0.7,1.8,2470.317,13.28,0.044,182.6
2022-02-22T08:13:03,42.805,6.029,-0.001,-0.035,-0.016,104.0,103.0,102.0,13.4,1505.2,329.5,-0.8,1.8,2470.305,13.28,0.035,181.6
2022-02-22T08:16:03,42.805,6.029,0.01,-0.039,-0.031,104.0,103.0,102.0,13.3,1505.2,327.2,-0.8,1.8,2470.326,13.28,0.04,165.6
2022-02-22T08:19:03,42.805,6.029,0.013,-0.054,-0.034,104.0,104.0,103.0,13.3,1505.2,324.4,-0.8,1.8,2470.336,13.28,0.055,166.5
2022-02-22T08:22:03,42.805,6.029,0.0,-0.051,-0.026,104.0,103.0,101.0,13.3,1505.2,324.0,-0.8,1.8,2470.378,13.28,0.051,180.0
2022-02-22T08:25:03,42.805,6.029,0.003,-0.046,-0.018,104.0,103.0,102.0,13.4,1505.2,326.6,-0.8,1.8,2470.366,13.28,0.046,176.3
2022-02-22T08:28:03,42.805,6.029,-0.003,-0.026,-0.018,104.0,104.0,102.0,13.3,1505.2,331.9,-0.7,1.8,2470.409,13.28,0.026,186.6
2022-02-22T08:31:03,42.805,6.029,-0.001,-0.056,-0.022,105.0,104.0,104.0,13.4,1505.2,325.4,-0.8,1.8,2470.411,13.28,0.056,181.0
2022-02-22T08:34:03,42.805,6.029,-0.002,-0.034,-0.027,105.0,103.0,102.0,13.4,1505.2,324.7,-0.7,1.8,2470.444,13.28,0.034,183.4
2022-02-22T08:37:03,42.805,6.029,0.016,-0.058,-0.032,105.0,104.0,102.0,13.4,1505.2,325.8,-0.7,1.8,2470.451,13.28,0.06,164.6
2022-02-22T08:40:03,42.805,6.029,0.013,-0.075,-0.059,105.0,104.0,103.0,13.4,1505.2,329.7,-0.7,1.8,2470.502,13.28,0.076,170.2
2022-02-22T08:43:03,42.805,6.029,-0.006,-0.065,-0.039,105.0,104.0,102.0,13.4,1505.2,329.4,-0.8,1.8,2470.492,13.28,0.065,185.3
2022-02-22T08:46:03,42.805,6.029,0.022,-0.062,-0.012,106.0,105.0,103.0,13.3,1505.2,328.9,-0.7,1.8,2470.522,13.28,0.065,160.5
2022-02-22T08:49:03,42.805,6.029,0.002,-0.054,-0.042,105.0,104.0,102.0,13.4,1505.2,327.0,-0.8,1.8,2470.545,13.28,0.054,177.9
2022-02-22T08:52:03,42.805,6.029,0.007,-0.053,-0.03,106.0,105.0,103.0,13.4,1505.2,325.8,-0.8,1.8,2470.543,13.28,0.053,172.5
2022-02-22T08:55:03,42.805,6.029,0.001,-0.044,-0.013,105.0,104.0,103.0,13.4,1505.2,329.3,-0.8,1.8,2470.569,13.28,0.044,178.7
2022-02-22T08:58:03,42.805,6.029,-0.009,-0.036,-0.029,106.0,105.0,103.0,13.3,1505.2,326.5,-0.8,1.8,2470.56,13.28,0.037,194.0
2022-02-22T09:04:03,42.805,6.029,-0.004,-0.025,-0.016,106.0,105.0,103.0,13.4,1505.2,325.8,-0.8,1.9,2470.607,13.28,0.025,189.1
2022-02-22T09:07:03,42.805,6.029,0.004,-0.034,-0.016,106.0,106.0,103.0,13.3,1505.2,326.3,-0.8,1.8,2470.637,13.28,0.034,173.3
2022-02-22T09:10:03,42.805,6.029,-0.01,-0.053,-0.021,105.0,105.0,104.0,13.4,1505.2,327.6,-0.8,1.8,2470.662,13.28,0.053,190.7
2022-02-22T09:13:03,42.805,6.029,0.013,-0.027,-0.018,105.0,104.0,102.0,13.4,1505.2,328.7,-0.8,1.8,2470.638,13.28,0.029,154.3
2022-02-22T09:16:03,42.805,6.029,-0.007,-0.049,-0.018,107.0,104.0,103.0,13.4,1505.2,329.7,-0.8,1.9,2470.649,13.28,0.049,188.1
2022-02-22T09:19:03,42.805,6.029,0.015,-0.039,-0.019,106.0,106.0,103.0,13.3,1505.2,324.5,-0.8,1.8,2470.659,13.28,0.041,159.0
2022-02-22T09:22:03,42.805,6.029,0.007,-0.031,-0.004,106.0,105.0,103.0,13.3,1505.2,329.1,-0.7,1.8,2470.675,13.28,0.031,167.3
2022-02-22T09:25:03,42.805,6.029,-0.007,-0.047,-0.04,105.0,105.0,103.0,13.4,1505.2,330.8,-0.8,1.8,2470.698,13.28,0.047,188.5
2022-02-22T09:28:03,42.805,6.029,-0.006,-0.04,-0.046,106.0,105.0,103.0,13.4,1505.2,325.9,-0.8,1.8,2470.691,13.28,0.04,188.5
2022-02-22T09:31:03,42.805,6.029,0.014,-0.035,0.008,106.0,106.0,103.0,13.4,1505.2,329.6,-0.8,1.9,2470.667,13.28,0.037,158.2
2022-02-22T09:34:03,42.805,6.029,0.003,-0.031,-0.02,106.0,106.0,104.0,13.4,1505.2,323.3,-0.8,1.8,2470.701,13.28,0.031,174.5
2022-02-22T09:37:03,42.805,6.029,0.015,-0.064,-0.027,106.0,106.0,103.0,13.3,1505.2,324.2,-0.8,1.8,2470.754,13.28,0.065,166.8
2022-02-22T09:40:03,42.805,6.029,0.004,-0.043,-0.055,107.0,105.0,103.0,13.4,1505.2,323.2,-0.7,1.8,2470.722,13.28,0.043,174.7
2022-02-22T09:43:03,42.805,6.029,0.018,-0.051,-0.023,106.0,105.0,103.0,13.4,1505.2,323.4,-0.8,1.9,2470.707,13.28,0.054,160.6
2022-02-22T09:46:03,42.805,6.029,0.012,-0.052,-0.012,105.0,106.0,103.0,13.4,1505.2,332.0,-0.8,1.8,2470.752,13.28,0.053,167.0
2022-02-22T09:49:03,42.805,6.029,0.016,-0.055,0.007,105.0,105.0,103.0,13.3,1505.2,326.5,-0.7,1.8,2470.729,13.28,0.057,163.8
2022-02-22T09:52:03,42.805,6.029,0.013,-0.046,-0.004,106.0,105.0,104.0,13.4,1505.2,323.5,-0.7,1.8,2470.717,13.28,0.047,164.2